Time,TemperatureF,DewpointF,PressureIn,WindDirection,WindDirectionDegrees,WindSpeedMPH,WindSpeedGustMPH,Humidity,HourlyPrecipIn,Conditions,Clouds,dailyrainin,SoftwareType,DateUTC
2013-03-18 00:01:00,44.4,41.7,29.75,SW,225,1.6,3.1,90,0.00,,,0.00,WUHU216EASYWX,2013-03-18 05:01:00,
2013-03-18 00:02:00,44.4,41.7,29.75,SW,225,1.6,3.1,90,0.00,,,0.00,WUHU216EASYWX,2013-03-18 05:02:00,
2013-03-18 00:03:00,44.2,41.5,29.74,SW,225,2.2,3.8,90,0.00,,,0.00,WUHU216EASYWX,2013-03-18 05:03:00,
2013-03-18 00:07:00,44.2,41.5,29.74,SW,225,2.2,3.8,90,0.00,,,0.00,WUHU216EASYWX,2013-03-18 05:07:00,
2013-03-18 00:08:00,44.4,41.7,29.74,SW,225,1.6,3.8,90,0.00,,,0.00,WUHU216EASYWX,2013-03-18 05:08:00,
2013-03-18 00:12:00,44.4,41.7,29.74,SW,225,1.6,3.8,90,0.00,,,0.00,WUHU216EASYWX,2013-03-18 05:12:00,
2013-03-18 00:13:00,44.4,41.4,29.73,SE,135,0.0,3.1,89,0.00,,OVC/// 10SM,0.00,WUHU216EASYWX,2013-03-18 05:13:00,
2013-03-18 00:17:00,44.4,41.4,29.73,SE,135,0.0,3.1,89,0.00,,,0.00,WUHU216EASYWX,2013-03-18 05:17:00,
2013-03-18 00:18:00,44.4,41.4,29.72,SW,225,0.0,1.6,89,0.00,,,0.00,WUHU216EASYWX,2013-03-18 05:18:00,
2013-03-18 00:19:00,44.4,41.4,29.72,SW,225,0.0,1.6,89,0.00,,,0.00,WUHU216EASYWX,2013-03-18 05:19:00,
2013-03-18 00:22:00,44.4,41.4,29.72,SW,225,0.0,1.6,89,0.00,,,0.00,WUHU216EASYWX,2013-03-18 05:22:00,
2013-03-18 00:23:00,44.4,41.4,29.73,NNW,338,0.7,1.6,89,0.00,,,0.00,WUHU216EASYWX,2013-03-18 05:23:00,
2013-03-18 00:24:00,44.4,41.4,29.73,NNW,338,0.7,1.6,89,0.00,,,0.00,WUHU216EASYWX,2013-03-18 05:24:00,
2013-03-18 00:27:00,44.4,41.4,29.73,NNW,338,0.7,1.6,89,0.00,,,0.00,WUHU216EASYWX,2013-03-18 05:27:00,
2013-03-18 00:28:00,44.2,41.2,29.73,NE,45,0.0,1.6,89,0.00,,,0.00,WUHU216EASYWX,2013-03-18 05:28:00,
2013-03-18 00:29:00,44.2,41.2,29.73,NE,45,0.0,1.6,89,0.00,,,0.00,WUHU216EASYWX,2013-03-18 05:29:00,
2013-03-18 00:33:00,44.2,41.2,29.73,NE,45,0.0,1.6,89,0.00,,,0.00,WUHU216EASYWX,2013-03-18 05:33:00,
2013-03-18 00:34:00,44.2,41.2,29.72,East,90,0.7,1.6,89,0.00,,,0.00,WUHU216EASYWX,2013-03-18 05:34:00,
2013-03-18 00:38:00,44.2,41.2,29.72,East,90,0.7,1.6,89,0.00,,,0.00,WUHU216EASYWX,2013-03-18 05:38:00,
2013-03-18 00:39:00,44.2,41.2,29.71,North,0,1.6,3.1,89,0.00,,,0.00,WUHU216EASYWX,2013-03-18 05:39:00,
2013-03-18 00:43:00,44.2,41.2,29.71,SE,135,0.7,3.1,89,0.00,,,0.00,WUHU216EASYWX,2013-03-18 05:43:00,
2013-03-18 00:44:00,44.2,41.2,29.71,SE,135,0.7,3.1,89,0.00,,,0.00,WUHU216EASYWX,2013-03-18 05:44:00,
2013-03-18 00:45:00,44.2,41.2,29.71,SE,135,0.7,3.1,89,0.00,,,0.00,WUHU216EASYWX,2013-03-18 05:45:00,
2013-03-18 00:48:00,44.2,41.2,29.72,South,180,0.0,2.2,89,0.00,,,0.00,WUHU216EASYWX,2013-03-18 05:48:00,
2013-03-18 00:49:00,44.2,41.2,29.72,South,180,0.0,2.2,89,0.00,,,0.00,WUHU216EASYWX,2013-03-18 05:49:00,
2013-03-18 00:50:00,44.2,41.2,29.72,South,180,0.0,2.2,89,0.00,,,0.00,WUHU216EASYWX,2013-03-18 05:50:00,
2013-03-18 00:53:00,44.2,41.2,29.71,SE,135,1.6,2.2,89,0.00,,,0.00,WUHU216EASYWX,2013-03-18 05:53:00,
2013-03-18 00:54:00,44.2,41.2,29.71,SE,135,1.6,2.2,89,0.00,,,0.00,WUHU216EASYWX,2013-03-18 05:54:00,
2013-03-18 00:55:00,44.2,41.2,29.71,SE,135,1.6,2.2,89,0.00,,,0.00,WUHU216EASYWX,2013-03-18 05:55:00,
2013-03-18 00:58:00,44.2,41.2,29.72,West,270,0.0,2.2,89,0.00,,,0.00,WUHU216EASYWX,2013-03-18 05:58:00,
2013-03-18 00:59:00,44.2,41.2,29.72,West,270,0.0,2.2,89,0.00,,,0.00,WUHU216EASYWX,2013-03-18 05:59:00,
2013-03-18 01:00:00,44.2,41.2,29.72,West,270,0.0,2.2,89,0.00,,,0.00,WUHU216EASYWX,2013-03-18 06:00:00,
2013-03-18 01:03:00,44.1,41.0,29.73,NW,315,0.7,1.6,89,0.00,,,0.00,WUHU216EASYWX,2013-03-18 06:03:00,
2013-03-18 01:04:00,44.1,41.0,29.73,NW,315,0.7,1.6,89,0.00,,,0.00,WUHU216EASYWX,2013-03-18 06:04:00,
2013-03-18 01:05:00,44.1,41.0,29.73,NW,315,0.7,1.6,89,0.00,,,0.00,WUHU216EASYWX,2013-03-18 06:05:00,
2013-03-18 01:08:00,44.1,41.4,29.75,North,0,1.6,3.1,90,0.00,,,0.00,WUHU216EASYWX,2013-03-18 06:08:00,
2013-03-18 01:09:00,44.1,41.4,29.75,North,0,1.6,3.1,90,0.00,,,0.00,WUHU216EASYWX,2013-03-18 06:09:00,
2013-03-18 01:10:00,44.1,41.4,29.75,North,0,1.6,3.1,90,0.00,,,0.00,WUHU216EASYWX,2013-03-18 06:10:00,
2013-03-18 01:13:00,44.1,41.4,29.74,NW,315,0.7,3.1,90,0.00,,,0.00,WUHU216EASYWX,2013-03-18 06:13:00,
2013-03-18 01:14:00,44.1,41.4,29.74,NW,315,0.7,3.1,90,0.00,,,0.00,WUHU216EASYWX,2013-03-18 06:14:00,
2013-03-18 01:15:00,44.1,41.4,29.74,NW,315,0.7,3.1,90,0.00,,,0.00,WUHU216EASYWX,2013-03-18 06:15:00,
2013-03-18 01:18:00,44.1,41.4,29.74,NE,45,1.6,3.1,90,0.00,,,0.00,WUHU216EASYWX,2013-03-18 06:18:00,
2013-03-18 01:19:00,44.1,41.4,29.74,NE,45,1.6,3.1,90,0.00,,,0.00,WUHU216EASYWX,2013-03-18 06:19:00,
2013-03-18 01:20:00,44.1,41.4,29.74,NE,45,1.6,3.1,90,0.00,,,0.00,WUHU216EASYWX,2013-03-18 06:20:00,
2013-03-18 01:21:00,44.1,41.4,29.74,NE,45,1.6,3.1,90,0.00,,,0.00,WUHU216EASYWX,2013-03-18 06:21:00,
2013-03-18 01:23:00,44.1,41.4,29.75,NW,315,1.6,3.1,90,0.00,,,0.00,WUHU216EASYWX,2013-03-18 06:23:00,
2013-03-18 01:24:00,44.1,41.4,29.75,NW,315,1.6,3.1,90,0.00,,,0.00,WUHU216EASYWX,2013-03-18 06:24:00,
2013-03-18 01:25:00,44.1,41.4,29.75,NW,315,1.6,3.1,90,0.00,,,0.00,WUHU216EASYWX,2013-03-18 06:25:00,
2013-03-18 01:26:00,44.1,41.4,29.75,NW,315,1.6,3.1,90,0.00,,,0.00,WUHU216EASYWX,2013-03-18 06:26:00,
2013-03-18 01:29:00,44.1,41.4,29.75,NW,315,1.6,3.1,90,0.00,,,0.00,WUHU216EASYWX,2013-03-18 06:29:00,
2013-03-18 01:30:00,44.1,41.4,29.75,NW,315,1.6,3.1,90,0.00,,,0.00,WUHU216EASYWX,2013-03-18 06:30:00,
2013-03-18 01:31:00,44.1,41.4,29.75,NW,315,1.6,3.1,90,0.00,,,0.00,WUHU216EASYWX,2013-03-18 06:31:00,
2013-03-18 01:34:00,44.1,41.4,29.74,NE,45,0.7,3.1,90,0.00,,,0.00,WUHU216EASYWX,2013-03-18 06:34:00,
2013-03-18 01:35:00,44.1,41.4,29.74,NE,45,0.7,3.1,90,0.00,,,0.00,WUHU216EASYWX,2013-03-18 06:35:00,
2013-03-18 01:36:00,44.1,41.4,29.74,NE,45,0.7,3.1,90,0.00,,,0.00,WUHU216EASYWX,2013-03-18 06:36:00,
2013-03-18 01:39:00,44.1,41.4,29.74,South,180,0.0,3.1,90,0.00,,,0.00,WUHU216EASYWX,2013-03-18 06:39:00,
2013-03-18 01:40:00,44.1,41.4,29.74,South,180,0.0,3.1,90,0.00,,,0.00,WUHU216EASYWX,2013-03-18 06:40:00,
2013-03-18 01:41:00,44.1,41.4,29.74,South,180,0.0,3.1,90,0.00,,,0.00,WUHU216EASYWX,2013-03-18 06:41:00,
2013-03-18 01:44:00,44.1,41.0,29.75,NW,315,0.0,0.7,89,0.00,,,0.00,WUHU216EASYWX,2013-03-18 06:44:00,
2013-03-18 01:45:00,44.1,41.0,29.75,NW,315,0.0,0.7,89,0.00,,,0.00,WUHU216EASYWX,2013-03-18 06:45:00,
2013-03-18 01:47:00,44.1,41.0,29.75,NW,315,0.0,0.7,89,0.00,,,0.00,WUHU216EASYWX,2013-03-18 06:47:00,
2013-03-18 01:49:00,44.2,41.5,29.74,NE,45,0.7,2.2,90,0.00,,,0.00,WUHU216EASYWX,2013-03-18 06:49:00,
2013-03-18 01:50:00,44.2,41.5,29.74,NE,45,0.7,2.2,90,0.00,,,0.00,WUHU216EASYWX,2013-03-18 06:50:00,
2013-03-18 01:52:00,44.2,41.5,29.74,NE,45,0.7,2.2,90,0.00,,,0.00,WUHU216EASYWX,2013-03-18 06:52:00,
2013-03-18 01:54:00,44.2,41.2,29.73,NE,45,1.6,2.2,89,0.00,,,0.00,WUHU216EASYWX,2013-03-18 06:54:00,
2013-03-18 01:55:00,44.2,41.2,29.73,NE,45,1.6,2.2,89,0.00,,,0.00,WUHU216EASYWX,2013-03-18 06:55:00,
2013-03-18 01:56:00,44.2,41.2,29.73,NE,45,1.6,2.2,89,0.00,,,0.00,WUHU216EASYWX,2013-03-18 06:56:00,
2013-03-18 01:57:00,44.2,41.2,29.73,NE,45,1.6,2.2,89,0.00,,,0.00,WUHU216EASYWX,2013-03-18 06:57:00,
2013-03-18 01:59:00,44.4,41.4,29.74,SE,135,0.0,2.2,89,0.00,,,0.00,WUHU216EASYWX,2013-03-18 06:59:00,
2013-03-18 02:01:00,44.4,41.4,29.74,SE,135,0.0,2.2,89,0.00,,,0.00,WUHU216EASYWX,2013-03-18 07:01:00,
2013-03-18 02:02:00,44.4,41.4,29.74,SE,135,0.0,2.2,89,0.00,,,0.00,WUHU216EASYWX,2013-03-18 07:02:00,
2013-03-18 02:05:00,44.4,41.7,29.73,NE,45,3.1,4.5,90,0.00,,,0.00,WUHU216EASYWX,2013-03-18 07:05:00,
2013-03-18 02:06:00,44.4,41.7,29.73,NE,45,3.1,4.5,90,0.00,,,0.00,WUHU216EASYWX,2013-03-18 07:06:00,
2013-03-18 02:07:00,44.4,41.7,29.73,NE,45,3.1,4.5,90,0.00,,,0.00,WUHU216EASYWX,2013-03-18 07:07:00,
2013-03-18 02:10:00,44.4,41.4,29.72,NNE,23,3.1,5.4,89,0.00,,,0.00,WUHU216EASYWX,2013-03-18 07:10:00,
2013-03-18 02:11:00,44.4,41.4,29.72,NNE,23,3.1,5.4,89,0.00,,,0.00,WUHU216EASYWX,2013-03-18 07:11:00,
2013-03-18 02:12:00,44.4,41.4,29.72,NNE,23,3.1,5.4,89,0.00,,,0.00,WUHU216EASYWX,2013-03-18 07:12:00,
2013-03-18 02:15:00,44.6,41.9,29.73,South,180,0.7,5.4,90,0.00,,,0.00,WUHU216EASYWX,2013-03-18 07:15:00,
2013-03-18 02:17:00,44.6,41.9,29.73,South,180,0.7,5.4,90,0.00,,,0.00,WUHU216EASYWX,2013-03-18 07:17:00,
2013-03-18 02:18:00,44.6,41.9,29.73,South,180,0.7,5.4,90,0.00,,,0.00,WUHU216EASYWX,2013-03-18 07:18:00,
2013-03-18 02:20:00,44.4,41.7,29.72,NW,315,1.6,3.8,90,0.00,,,0.00,WUHU216EASYWX,2013-03-18 07:20:00,
2013-03-18 02:22:00,44.4,41.7,29.72,NW,315,1.6,3.8,90,0.00,,,0.00,WUHU216EASYWX,2013-03-18 07:22:00,
2013-03-18 02:23:00,44.4,41.9,29.73,NE,45,2.2,4.5,91,0.00,,,0.00,WUHU216EASYWX,2013-03-18 07:23:00,
2013-03-18 02:25:00,44.4,41.9,29.73,NE,45,2.2,4.5,91,0.00,,,0.00,WUHU216EASYWX,2013-03-18 07:25:00,
2013-03-18 02:27:00,44.4,41.9,29.73,NE,45,2.2,4.5,91,0.00,,,0.00,WUHU216EASYWX,2013-03-18 07:27:00,
2013-03-18 02:28:00,44.2,41.7,29.73,SW,225,3.1,6.9,91,0.00,,,0.00,WUHU216EASYWX,2013-03-18 07:28:00,
2013-03-18 02:30:00,44.2,41.7,29.73,SW,225,3.1,6.9,91,0.00,,,0.00,WUHU216EASYWX,2013-03-18 07:30:00,
2013-03-18 02:33:00,44.2,41.7,29.73,SW,225,3.1,6.9,91,0.00,,,0.00,WUHU216EASYWX,2013-03-18 07:33:00,
2013-03-18 02:34:00,44.1,41.9,29.73,NE,45,1.6,6.9,92,0.00,,,0.00,WUHU216EASYWX,2013-03-18 07:34:00,
2013-03-18 02:35:00,44.1,41.9,29.73,NE,45,1.6,6.9,92,0.00,,,0.00,WUHU216EASYWX,2013-03-18 07:35:00,
2013-03-18 02:38:00,44.1,41.9,29.73,NE,45,1.6,6.9,92,0.00,,,0.00,WUHU216EASYWX,2013-03-18 07:38:00,
2013-03-18 02:39:00,44.1,41.9,29.73,NE,45,1.6,6.0,92,0.00,,,0.00,WUHU216EASYWX,2013-03-18 07:39:00,
2013-03-18 02:40:00,44.1,41.9,29.73,NE,45,1.6,6.0,92,0.00,,,0.00,WUHU216EASYWX,2013-03-18 07:40:00,
2013-03-18 02:43:00,43.9,41.7,29.74,WNW,293,2.2,5.4,92,0.00,,,0.00,WUHU216EASYWX,2013-03-18 07:43:00,
2013-03-18 02:44:00,43.9,41.7,29.74,WNW,293,2.2,5.4,92,0.00,,,0.00,WUHU216EASYWX,2013-03-18 07:44:00,
2013-03-18 02:45:00,43.9,41.7,29.74,WNW,293,2.2,5.4,92,0.00,,,0.00,WUHU216EASYWX,2013-03-18 07:45:00,
2013-03-18 02:48:00,43.9,41.7,29.76,South,180,1.6,6.9,92,0.00,,,0.00,WUHU216EASYWX,2013-03-18 07:48:00,
2013-03-18 02:49:00,43.9,41.7,29.76,South,180,1.6,6.9,92,0.00,,,0.00,WUHU216EASYWX,2013-03-18 07:49:00,
2013-03-18 02:50:00,43.9,41.7,29.76,South,180,1.6,6.9,92,0.00,,,0.00,WUHU216EASYWX,2013-03-18 07:50:00,
2013-03-18 02:51:00,43.9,41.7,29.76,South,180,1.6,6.9,92,0.00,,,0.00,WUHU216EASYWX,2013-03-18 07:51:00,
2013-03-18 02:53:00,43.9,41.7,29.76,North,0,3.1,6.9,92,0.00,,,0.00,WUHU216EASYWX,2013-03-18 07:53:00,
2013-03-18 02:54:00,43.9,41.7,29.76,North,0,3.1,6.9,92,0.00,,,0.00,WUHU216EASYWX,2013-03-18 07:54:00,
2013-03-18 02:55:00,43.9,41.7,29.76,North,0,3.1,6.9,92,0.00,,,0.00,WUHU216EASYWX,2013-03-18 07:55:00,
2013-03-18 02:56:00,43.9,41.7,29.76,North,0,3.1,6.9,92,0.00,,,0.00,WUHU216EASYWX,2013-03-18 07:56:00,
2013-03-18 02:58:00,43.7,41.5,29.76,SE,135,3.1,6.0,92,0.00,,,0.00,WUHU216EASYWX,2013-03-18 07:58:00,
2013-03-18 02:59:00,43.7,41.5,29.76,SE,135,3.1,6.0,92,0.00,,,0.00,WUHU216EASYWX,2013-03-18 07:59:00,
2013-03-18 03:00:00,43.7,41.5,29.76,SE,135,3.1,6.0,92,0.00,,,0.00,WUHU216EASYWX,2013-03-18 08:00:00,
2013-03-18 03:01:00,43.7,41.5,29.76,SE,135,3.1,6.0,92,0.00,,,0.00,WUHU216EASYWX,2013-03-18 08:01:00,
2013-03-18 03:03:00,43.7,41.5,29.76,North,0,4.5,7.6,92,0.00,,,0.00,WUHU216EASYWX,2013-03-18 08:03:00,
2013-03-18 03:04:00,43.7,41.5,29.76,North,0,4.5,7.6,92,0.00,,,0.00,WUHU216EASYWX,2013-03-18 08:04:00,
2013-03-18 03:05:00,43.7,41.5,29.76,North,0,4.5,7.6,92,0.00,,,0.00,WUHU216EASYWX,2013-03-18 08:05:00,
2013-03-18 03:06:00,43.7,41.5,29.76,North,0,4.5,7.6,92,0.00,,,0.00,WUHU216EASYWX,2013-03-18 08:06:00,
2013-03-18 03:08:00,43.5,41.4,29.76,North,0,3.8,10.8,92,0.00,,,0.00,WUHU216EASYWX,2013-03-18 08:08:00,
2013-03-18 03:10:00,43.5,41.4,29.76,North,0,3.8,10.8,92,0.00,,,0.00,WUHU216EASYWX,2013-03-18 08:10:00,
2013-03-18 03:11:00,43.5,41.4,29.76,North,0,3.8,10.8,92,0.00,,,0.00,WUHU216EASYWX,2013-03-18 08:11:00,
2013-03-18 03:14:00,43.5,41.4,29.76,North,0,3.1,10.8,92,0.00,,,0.00,WUHU216EASYWX,2013-03-18 08:14:00,
2013-03-18 03:15:00,43.5,41.4,29.76,North,0,3.1,10.8,92,0.00,,,0.00,WUHU216EASYWX,2013-03-18 08:15:00,
2013-03-18 03:16:00,43.5,41.4,29.76,North,0,3.1,10.8,92,0.00,,,0.00,WUHU216EASYWX,2013-03-18 08:16:00,
2013-03-18 03:19:00,43.3,41.2,29.77,NW,315,5.4,9.2,92,0.00,,,0.00,WUHU216EASYWX,2013-03-18 08:19:00,
2013-03-18 03:20:00,43.3,41.2,29.77,NW,315,5.4,9.2,92,0.00,,,0.00,WUHU216EASYWX,2013-03-18 08:20:00,
2013-03-18 03:22:00,43.3,41.2,29.77,NW,315,5.4,9.2,92,0.00,,,0.00,WUHU216EASYWX,2013-03-18 08:22:00,
2013-03-18 03:24:00,43.2,41.0,29.76,West,270,1.6,9.2,92,0.00,,,0.00,WUHU216EASYWX,2013-03-18 08:24:00,
2013-03-18 03:25:00,43.2,41.0,29.76,West,270,1.6,9.2,92,0.00,,,0.00,WUHU216EASYWX,2013-03-18 08:25:00,
2013-03-18 03:27:00,43.2,41.0,29.76,West,270,1.6,9.2,92,0.00,,,0.00,WUHU216EASYWX,2013-03-18 08:27:00,
2013-03-18 03:29:00,43.2,41.0,29.77,NE,45,5.4,10.8,92,0.00,,,0.00,WUHU216EASYWX,2013-03-18 08:29:00,
2013-03-18 03:30:00,43.2,41.0,29.77,NE,45,5.4,10.8,92,0.00,,,0.00,WUHU216EASYWX,2013-03-18 08:30:00,
2013-03-18 03:31:00,43.2,41.0,29.77,NE,45,5.4,10.8,92,0.00,,,0.00,WUHU216EASYWX,2013-03-18 08:31:00,
2013-03-18 03:32:00,43.2,41.0,29.77,NE,45,5.4,10.8,92,0.00,,,0.00,WUHU216EASYWX,2013-03-18 08:32:00,
2013-03-18 03:34:00,43.2,40.6,29.77,South,180,1.6,10.8,91,0.00,,,0.00,WUHU216EASYWX,2013-03-18 08:34:00,
2013-03-18 03:35:00,43.2,40.6,29.77,South,180,1.6,10.8,91,0.00,,,0.00,WUHU216EASYWX,2013-03-18 08:35:00,
2013-03-18 03:36:00,43.2,40.6,29.77,South,180,1.6,10.8,91,0.00,,,0.00,WUHU216EASYWX,2013-03-18 08:36:00,
2013-03-18 03:37:00,43.2,40.6,29.77,South,180,1.6,10.8,91,0.00,,,0.00,WUHU216EASYWX,2013-03-18 08:37:00,
2013-03-18 03:39:00,43.0,40.5,29.78,North,0,6.9,18.4,91,0.00,,,0.00,WUHU216EASYWX,2013-03-18 08:39:00,
2013-03-18 03:40:00,43.0,40.5,29.78,North,0,6.9,18.4,91,0.00,,,0.00,WUHU216EASYWX,2013-03-18 08:40:00,
2013-03-18 03:41:00,43.0,40.5,29.78,North,0,6.9,18.4,91,0.00,,,0.00,WUHU216EASYWX,2013-03-18 08:41:00,
2013-03-18 03:42:00,43.0,40.5,29.78,North,0,6.9,18.4,91,0.00,,,0.00,WUHU216EASYWX,2013-03-18 08:42:00,
2013-03-18 03:45:00,43.0,40.5,29.77,NW,315,4.5,18.4,91,0.00,,,0.00,WUHU216EASYWX,2013-03-18 08:45:00,
2013-03-18 03:46:00,43.0,40.5,29.77,NW,315,4.5,18.4,91,0.00,,,0.00,WUHU216EASYWX,2013-03-18 08:46:00,
2013-03-18 03:47:00,43.0,40.5,29.77,NW,315,4.5,18.4,91,0.00,,,0.00,WUHU216EASYWX,2013-03-18 08:47:00,
2013-03-18 03:50:00,43.0,40.5,29.77,NE,45,2.2,8.3,91,0.00,,,0.00,WUHU216EASYWX,2013-03-18 08:50:00,
2013-03-18 03:51:00,43.0,40.5,29.77,NE,45,2.2,8.3,91,0.00,,,0.00,WUHU216EASYWX,2013-03-18 08:51:00,
2013-03-18 03:52:00,43.0,40.5,29.77,NE,45,2.2,8.3,91,0.00,,,0.00,WUHU216EASYWX,2013-03-18 08:52:00,
2013-03-18 03:55:00,43.0,40.5,29.77,NW,315,2.2,7.6,91,0.00,,,0.00,WUHU216EASYWX,2013-03-18 08:55:00,
2013-03-18 03:56:00,43.0,40.5,29.77,NW,315,2.2,7.6,91,0.00,,,0.00,WUHU216EASYWX,2013-03-18 08:56:00,
2013-03-18 03:58:00,43.0,40.5,29.77,NW,315,2.2,7.6,91,0.00,,,0.00,WUHU216EASYWX,2013-03-18 08:58:00,
2013-03-18 04:00:00,43.0,40.5,29.77,SE,135,0.7,5.4,91,0.00,,,0.00,WUHU216EASYWX,2013-03-18 09:00:00,
2013-03-18 04:02:00,43.0,40.5,29.77,SE,135,0.7,5.4,91,0.00,,,0.00,WUHU216EASYWX,2013-03-18 09:02:00,
2013-03-18 04:03:00,43.0,40.5,29.77,SE,135,0.7,3.1,91,0.00,,,0.00,WUHU216EASYWX,2013-03-18 09:03:00,
2013-03-18 04:05:00,43.2,40.5,29.78,NW,315,1.6,3.8,90,0.00,,,0.00,WUHU216EASYWX,2013-03-18 09:05:00,
2013-03-18 04:07:00,43.2,40.5,29.78,NW,315,1.6,3.8,90,0.00,,,0.00,WUHU216EASYWX,2013-03-18 09:07:00,
2013-03-18 04:08:00,43.0,40.3,29.78,NW,315,1.6,5.4,90,0.00,,,0.00,WUHU216EASYWX,2013-03-18 09:08:00,
2013-03-18 04:10:00,43.0,40.3,29.78,NW,315,1.6,5.4,90,0.00,,,0.00,WUHU216EASYWX,2013-03-18 09:10:00,
2013-03-18 04:12:00,43.0,40.3,29.78,NW,315,1.6,5.4,90,0.00,,,0.00,WUHU216EASYWX,2013-03-18 09:12:00,
2013-03-18 04:13:00,43.2,40.5,29.78,North,0,3.1,7.6,90,0.00,,,0.00,WUHU216EASYWX,2013-03-18 09:13:00,
2013-03-18 04:15:00,43.2,40.5,29.78,North,0,3.1,7.6,90,0.00,,,0.00,WUHU216EASYWX,2013-03-18 09:15:00,
2013-03-18 04:17:00,43.2,40.5,29.78,North,0,3.1,7.6,90,0.00,,,0.00,WUHU216EASYWX,2013-03-18 09:17:00,
2013-03-18 04:18:00,43.2,40.5,29.78,SE,135,2.2,7.6,90,0.00,,,0.00,WUHU216EASYWX,2013-03-18 09:18:00,
2013-03-18 04:21:00,43.2,40.5,29.78,SE,135,2.2,7.6,90,0.00,,,0.00,WUHU216EASYWX,2013-03-18 09:21:00,
2013-03-18 04:22:00,43.2,40.5,29.78,SE,135,2.2,7.6,90,0.00,,,0.00,WUHU216EASYWX,2013-03-18 09:22:00,
2013-03-18 04:23:00,43.2,40.5,29.78,NE,45,3.8,7.6,90,0.00,,,0.00,WUHU216EASYWX,2013-03-18 09:23:00,
2013-03-18 04:26:00,43.2,40.5,29.78,NE,45,3.8,7.6,90,0.00,,,0.00,WUHU216EASYWX,2013-03-18 09:26:00,
2013-03-18 04:27:00,43.2,40.5,29.78,NE,45,3.8,7.6,90,0.00,,,0.00,WUHU216EASYWX,2013-03-18 09:27:00,
2013-03-18 04:28:00,43.0,40.3,29.78,East,90,1.6,7.6,90,0.00,,,0.00,WUHU216EASYWX,2013-03-18 09:28:00,
2013-03-18 04:31:00,43.0,40.3,29.78,East,90,1.6,7.6,90,0.00,,,0.00,WUHU216EASYWX,2013-03-18 09:31:00,
2013-03-18 04:32:00,43.0,40.3,29.78,East,90,1.6,7.6,90,0.00,,,0.00,WUHU216EASYWX,2013-03-18 09:32:00,
2013-03-18 04:33:00,43.0,40.3,29.78,NW,315,0.7,3.1,90,0.00,,,0.00,WUHU216EASYWX,2013-03-18 09:33:00,
2013-03-18 04:34:00,43.0,40.3,29.78,NW,315,0.7,3.1,90,0.00,,,0.00,WUHU216EASYWX,2013-03-18 09:34:00,
2013-03-18 04:37:00,43.0,40.3,29.78,NW,315,0.7,3.1,90,0.00,,,0.00,WUHU216EASYWX,2013-03-18 09:37:00,
2013-03-18 04:38:00,43.0,40.3,29.80,NW,315,2.2,5.4,90,0.00,,,0.00,WUHU216EASYWX,2013-03-18 09:38:00,
2013-03-18 04:39:00,43.0,40.3,29.80,NW,315,2.2,5.4,90,0.00,,,0.00,WUHU216EASYWX,2013-03-18 09:39:00,
2013-03-18 04:43:00,43.0,40.3,29.80,NW,315,2.2,5.4,90,0.00,,,0.00,WUHU216EASYWX,2013-03-18 09:43:00,
2013-03-18 04:44:00,43.0,39.9,29.79,West,270,1.6,5.4,89,0.00,,,0.00,WUHU216EASYWX,2013-03-18 09:44:00,
2013-03-18 04:48:00,42.8,39.7,29.79,SE,135,0.7,4.5,89,0.00,,,0.00,WUHU216EASYWX,2013-03-18 09:48:00,
2013-03-18 04:49:00,42.8,39.7,29.79,SE,135,0.7,4.5,89,0.00,,,0.00,WUHU216EASYWX,2013-03-18 09:49:00,
2013-03-18 04:53:00,42.6,39.6,29.79,East,90,0.7,2.2,89,0.00,,,0.00,WUHU216EASYWX,2013-03-18 09:53:00,
2013-03-18 04:54:00,42.6,39.6,29.79,East,90,0.7,2.2,89,0.00,,,0.00,WUHU216EASYWX,2013-03-18 09:54:00,
2013-03-18 04:58:00,42.4,39.4,29.80,West,270,0.7,3.1,89,0.00,,,0.00,WUHU216EASYWX,2013-03-18 09:58:00,
2013-03-18 04:59:00,42.4,39.4,29.80,West,270,0.7,3.1,89,0.00,,,0.00,WUHU216EASYWX,2013-03-18 09:59:00,
2013-03-18 05:03:00,42.4,39.4,29.80,East,90,0.7,3.1,89,0.00,,,0.00,WUHU216EASYWX,2013-03-18 10:03:00,
2013-03-18 05:04:00,42.4,39.4,29.80,East,90,0.7,3.1,89,0.00,,,0.00,WUHU216EASYWX,2013-03-18 10:04:00,
2013-03-18 05:08:00,42.3,39.2,29.79,South,180,0.0,2.2,89,0.00,,,0.00,WUHU216EASYWX,2013-03-18 10:08:00,
2013-03-18 05:09:00,42.3,39.2,29.79,South,180,0.0,2.2,89,0.00,,,0.00,WUHU216EASYWX,2013-03-18 10:09:00,
2013-03-18 05:10:00,42.3,39.2,29.79,South,180,0.0,2.2,89,0.00,,,0.00,WUHU216EASYWX,2013-03-18 10:10:00,
2013-03-18 05:13:00,42.1,39.0,29.79,North,0,0.7,2.2,89,0.00,,,0.00,WUHU216EASYWX,2013-03-18 10:13:00,
2013-03-18 05:14:00,42.1,39.0,29.79,North,0,0.7,2.2,89,0.00,,,0.00,WUHU216EASYWX,2013-03-18 10:14:00,
2013-03-18 05:15:00,42.1,39.0,29.79,North,0,0.7,2.2,89,0.00,,,0.00,WUHU216EASYWX,2013-03-18 10:15:00,
2013-03-18 05:18:00,42.1,39.0,29.78,NW,315,3.8,6.0,89,0.00,,,0.00,WUHU216EASYWX,2013-03-18 10:18:00,
2013-03-18 05:19:00,42.1,39.0,29.78,NW,315,3.8,6.0,89,0.00,,,0.00,WUHU216EASYWX,2013-03-18 10:19:00,
2013-03-18 05:20:00,42.1,39.0,29.78,NW,315,3.8,6.0,89,0.00,,,0.00,WUHU216EASYWX,2013-03-18 10:20:00,
2013-03-18 05:23:00,42.1,39.0,29.77,NE,45,1.6,6.0,89,0.00,,,0.00,WUHU216EASYWX,2013-03-18 10:23:00,
2013-03-18 05:24:00,42.1,39.0,29.77,NE,45,1.6,6.0,89,0.00,,,0.00,WUHU216EASYWX,2013-03-18 10:24:00,
2013-03-18 05:25:00,42.1,39.0,29.77,NE,45,1.6,6.0,89,0.00,,,0.00,WUHU216EASYWX,2013-03-18 10:25:00,
2013-03-18 05:29:00,42.1,39.0,29.76,North,0,2.2,4.5,89,0.00,,,0.00,WUHU216EASYWX,2013-03-18 10:29:00,
2013-03-18 05:30:00,42.1,39.0,29.76,North,0,2.2,4.5,89,0.00,,,0.00,WUHU216EASYWX,2013-03-18 10:30:00,
2013-03-18 05:34:00,42.1,39.0,29.79,SW,225,0.0,3.1,89,0.00,,,0.00,WUHU216EASYWX,2013-03-18 10:34:00,
2013-03-18 05:35:00,42.1,39.0,29.79,SW,225,0.0,3.1,89,0.00,,,0.00,WUHU216EASYWX,2013-03-18 10:35:00,
2013-03-18 05:39:00,42.1,39.0,29.82,SW,225,2.2,3.8,89,0.00,,,0.00,WUHU216EASYWX,2013-03-18 10:39:00,
2013-03-18 05:40:00,42.1,39.0,29.82,SW,225,2.2,3.8,89,0.00,,,0.00,WUHU216EASYWX,2013-03-18 10:40:00,
2013-03-18 05:44:00,42.3,39.2,29.83,West,270,1.6,3.8,89,0.00,,,0.00,WUHU216EASYWX,2013-03-18 10:44:00,
2013-03-18 05:45:00,42.3,39.2,29.83,West,270,1.6,3.8,89,0.00,,,0.00,WUHU216EASYWX,2013-03-18 10:45:00,
2013-03-18 05:50:00,42.3,39.2,29.83,West,270,0.7,2.2,89,0.00,,,0.00,WUHU216EASYWX,2013-03-18 10:50:00,
2013-03-18 05:55:00,42.3,39.2,29.84,West,270,3.1,4.5,89,0.00,,,0.00,WUHU216EASYWX,2013-03-18 10:55:00,
2013-03-18 05:56:00,42.3,39.2,29.84,West,270,3.1,4.5,89,0.00,,,0.00,WUHU216EASYWX,2013-03-18 10:56:00,
2013-03-18 06:00:00,42.3,39.2,29.79,NE,45,4.5,5.4,89,0.00,,,0.00,WUHU216EASYWX,2013-03-18 11:00:00,
2013-03-18 06:01:00,42.3,39.2,29.79,NE,45,4.5,5.4,89,0.00,,,0.00,WUHU216EASYWX,2013-03-18 11:01:00,
2013-03-18 06:05:00,42.3,39.0,29.80,SE,135,3.8,6.0,88,0.00,,,0.00,WUHU216EASYWX,2013-03-18 11:05:00,
2013-03-18 06:06:00,42.3,39.0,29.80,SE,135,3.8,6.0,88,0.00,,,0.00,WUHU216EASYWX,2013-03-18 11:06:00,
2013-03-18 06:10:00,42.1,39.0,29.82,West,270,3.1,6.0,89,0.00,,,0.00,WUHU216EASYWX,2013-03-18 11:10:00,
2013-03-18 06:12:00,42.1,39.0,29.82,West,270,3.1,6.0,89,0.00,,,0.00,WUHU216EASYWX,2013-03-18 11:12:00,
2013-03-18 06:15:00,41.9,38.8,29.80,North,0,1.6,6.0,89,0.00,,,0.00,WUHU216EASYWX,2013-03-18 11:15:00,
2013-03-18 06:17:00,41.9,38.8,29.80,North,0,1.6,6.0,89,0.00,,,0.00,WUHU216EASYWX,2013-03-18 11:17:00,
2013-03-18 06:20:00,41.7,38.7,29.82,West,270,0.7,3.8,89,0.00,,,0.00,WUHU216EASYWX,2013-03-18 11:20:00,
2013-03-18 06:22:00,41.7,38.7,29.82,West,270,0.7,3.8,89,0.00,,,0.00,WUHU216EASYWX,2013-03-18 11:22:00,
2013-03-18 06:25:00,41.5,38.5,29.83,West,270,1.6,3.1,89,0.00,,,0.00,WUHU216EASYWX,2013-03-18 11:25:00,
2013-03-18 06:26:00,41.5,38.5,29.83,West,270,1.6,3.1,89,0.00,,,0.00,WUHU216EASYWX,2013-03-18 11:26:00,
2013-03-18 06:27:00,41.5,38.5,29.83,West,270,1.6,3.1,89,0.00,,,0.00,WUHU216EASYWX,2013-03-18 11:27:00,
2013-03-18 06:28:00,41.4,38.3,29.82,NW,315,0.7,3.1,89,0.00,,,0.00,WUHU216EASYWX,2013-03-18 11:28:00,
2013-03-18 06:30:00,41.4,38.3,29.82,NW,315,0.7,3.1,89,0.00,,,0.00,WUHU216EASYWX,2013-03-18 11:30:00,
2013-03-18 06:31:00,41.4,38.3,29.82,NW,315,0.7,3.1,89,0.00,,,0.00,WUHU216EASYWX,2013-03-18 11:31:00,
2013-03-18 06:32:00,41.4,38.3,29.82,NW,315,0.7,3.1,89,0.00,,,0.00,WUHU216EASYWX,2013-03-18 11:32:00,
2013-03-18 06:33:00,41.2,38.5,29.83,North,0,1.6,3.8,90,0.00,,,0.00,WUHU216EASYWX,2013-03-18 11:33:00,
2013-03-18 06:36:00,41.2,38.5,29.83,North,0,1.6,3.8,90,0.00,,,0.00,WUHU216EASYWX,2013-03-18 11:36:00,
2013-03-18 06:37:00,41.2,38.5,29.83,North,0,1.6,3.8,90,0.00,,,0.00,WUHU216EASYWX,2013-03-18 11:37:00,
2013-03-18 06:38:00,41.2,38.5,29.83,NW,315,1.6,4.5,90,0.00,,,0.00,WUHU216EASYWX,2013-03-18 11:38:00,
2013-03-18 06:41:00,41.2,38.5,29.83,NW,315,1.6,4.5,90,0.00,,,0.00,WUHU216EASYWX,2013-03-18 11:41:00,
2013-03-18 06:42:00,41.2,38.5,29.83,NW,315,1.6,4.5,90,0.00,,,0.00,WUHU216EASYWX,2013-03-18 11:42:00,
2013-03-18 06:43:00,41.2,38.5,29.85,NE,45,2.2,4.5,90,0.00,,,0.00,WUHU216EASYWX,2013-03-18 11:43:00,
2013-03-18 06:46:00,41.2,38.5,29.85,NE,45,2.2,4.5,90,0.00,,,0.00,WUHU216EASYWX,2013-03-18 11:46:00,
2013-03-18 06:47:00,41.2,38.5,29.85,NE,45,2.2,4.5,90,0.00,,,0.00,WUHU216EASYWX,2013-03-18 11:47:00,
2013-03-18 06:48:00,41.2,38.5,29.84,West,270,0.7,4.5,90,0.00,,,0.00,WUHU216EASYWX,2013-03-18 11:48:00,
2013-03-18 06:51:00,41.2,38.5,29.84,West,270,0.7,4.5,90,0.00,,,0.00,WUHU216EASYWX,2013-03-18 11:51:00,
2013-03-18 06:52:00,41.2,38.5,29.84,West,270,0.7,4.5,90,0.00,,,0.00,WUHU216EASYWX,2013-03-18 11:52:00,
2013-03-18 06:53:00,41.0,37.9,29.83,North,0,1.6,3.8,89,0.00,,,0.00,WUHU216EASYWX,2013-03-18 11:53:00,
2013-03-18 06:57:00,41.0,37.9,29.83,North,0,1.6,3.8,89,0.00,,,0.00,WUHU216EASYWX,2013-03-18 11:57:00,
2013-03-18 06:58:00,41.0,37.9,29.83,East,90,0.7,3.8,89,0.00,,,0.00,WUHU216EASYWX,2013-03-18 11:58:00,
2013-03-18 06:59:00,41.0,37.9,29.83,East,90,0.7,3.8,89,0.00,,,0.00,WUHU216EASYWX,2013-03-18 11:59:00,
2013-03-18 07:02:00,41.0,37.9,29.83,East,90,0.7,3.8,89,0.00,,,0.00,WUHU216EASYWX,2013-03-18 12:02:00,
2013-03-18 07:03:00,41.0,37.9,29.83,East,90,0.7,3.8,89,0.00,,,0.00,WUHU216EASYWX,2013-03-18 12:03:00,
2013-03-18 07:04:00,41.2,38.1,29.85,NW,315,0.0,2.2,89,0.00,,,0.00,WUHU216EASYWX,2013-03-18 12:04:00,
2013-03-18 07:07:00,41.2,38.1,29.85,NW,315,0.0,2.2,89,0.00,,,0.00,WUHU216EASYWX,2013-03-18 12:07:00,
2013-03-18 07:08:00,41.2,38.1,29.85,NW,315,0.0,0.7,89,0.00,,,0.00,WUHU216EASYWX,2013-03-18 12:08:00,
2013-03-18 07:09:00,41.4,38.3,29.85,North,0,0.7,2.2,89,0.00,,,0.00,WUHU216EASYWX,2013-03-18 12:09:00,
2013-03-18 07:12:00,41.4,38.3,29.85,North,0,0.7,2.2,89,0.00,,,0.00,WUHU216EASYWX,2013-03-18 12:12:00,
2013-03-18 07:13:00,41.2,38.1,29.85,North,0,3.1,4.5,89,0.00,,,0.00,WUHU216EASYWX,2013-03-18 12:13:00,
2013-03-18 07:14:00,41.2,38.1,29.85,North,0,3.1,4.5,89,0.00,,,0.00,WUHU216EASYWX,2013-03-18 12:14:00,
2013-03-18 07:17:00,41.2,38.1,29.85,North,0,3.1,4.5,89,0.00,,,0.00,WUHU216EASYWX,2013-03-18 12:17:00,
2013-03-18 07:18:00,41.2,37.9,29.87,SE,135,2.2,4.5,88,0.00,,,0.00,WUHU216EASYWX,2013-03-18 12:18:00,
2013-03-18 07:19:00,41.2,37.9,29.87,SE,135,2.2,4.5,88,0.00,,,0.00,WUHU216EASYWX,2013-03-18 12:19:00,
2013-03-18 07:22:00,41.2,37.9,29.87,SE,135,2.2,4.5,88,0.00,,,0.00,WUHU216EASYWX,2013-03-18 12:22:00,
2013-03-18 07:23:00,41.2,37.9,29.86,SE,135,3.1,6.9,88,0.00,,,0.00,WUHU216EASYWX,2013-03-18 12:23:00,
2013-03-18 07:24:00,41.2,37.9,29.86,SE,135,3.1,6.9,88,0.00,,,0.00,WUHU216EASYWX,2013-03-18 12:24:00,
2013-03-18 07:28:00,41.2,37.9,29.87,NE,45,1.6,6.9,88,0.00,,,0.00,WUHU216EASYWX,2013-03-18 12:28:00,
2013-03-18 07:29:00,41.2,37.9,29.87,NE,45,1.6,6.9,88,0.00,,,0.00,WUHU216EASYWX,2013-03-18 12:29:00,
2013-03-18 07:30:00,41.2,37.9,29.87,NE,45,1.6,6.9,88,0.00,,,0.00,WUHU216EASYWX,2013-03-18 12:30:00,
2013-03-18 07:33:00,41.0,37.8,29.87,NW,315,3.8,8.3,88,0.00,,,0.00,WUHU216EASYWX,2013-03-18 12:33:00,
2013-03-18 07:34:00,41.0,37.8,29.87,NW,315,3.8,8.3,88,0.00,,,0.00,WUHU216EASYWX,2013-03-18 12:34:00,
2013-03-18 07:36:00,41.0,37.8,29.87,NW,315,3.8,8.3,88,0.00,,,0.00,WUHU216EASYWX,2013-03-18 12:36:00,
2013-03-18 07:38:00,41.0,37.8,29.87,NW,315,2.2,8.3,88,0.00,,,0.00,WUHU216EASYWX,2013-03-18 12:38:00,
2013-03-18 07:39:00,41.0,37.8,29.87,NW,315,2.2,8.3,88,0.00,,,0.00,WUHU216EASYWX,2013-03-18 12:39:00,
2013-03-18 07:42:00,41.0,37.8,29.87,NW,315,2.2,8.3,88,0.00,,,0.00,WUHU216EASYWX,2013-03-18 12:42:00,
2013-03-18 07:43:00,41.0,37.8,29.87,NW,315,2.2,4.5,88,0.00,,,0.00,WUHU216EASYWX,2013-03-18 12:43:00,
2013-03-18 07:44:00,41.0,37.8,29.87,NW,315,2.2,4.5,88,0.00,,,0.00,WUHU216EASYWX,2013-03-18 12:44:00,
2013-03-18 07:47:00,41.0,37.8,29.87,NW,315,2.2,4.5,88,0.00,,,0.00,WUHU216EASYWX,2013-03-18 12:47:00,
2013-03-18 07:48:00,41.0,37.8,29.88,West,270,2.2,6.9,88,0.00,,,0.00,WUHU216EASYWX,2013-03-18 12:48:00,
2013-03-18 07:49:00,41.0,37.8,29.88,West,270,2.2,6.9,88,0.00,,,0.00,WUHU216EASYWX,2013-03-18 12:49:00,
2013-03-18 07:52:00,41.0,37.8,29.88,West,270,2.2,6.9,88,0.00,,,0.00,WUHU216EASYWX,2013-03-18 12:52:00,
2013-03-18 07:53:00,40.5,36.9,29.90,West,270,3.1,6.9,87,0.00,,,0.00,WUHU216EASYWX,2013-03-18 12:53:00,
2013-03-18 07:54:00,40.5,36.9,29.90,West,270,3.1,6.9,87,0.00,,,0.00,WUHU216EASYWX,2013-03-18 12:54:00,
2013-03-18 07:57:00,40.5,36.9,29.90,West,270,3.1,6.9,87,0.00,,,0.00,WUHU216EASYWX,2013-03-18 12:57:00,
2013-03-18 07:58:00,40.8,37.6,29.91,NE,45,0.7,5.4,88,0.00,,,0.00,WUHU216EASYWX,2013-03-18 12:58:00,
2013-03-18 07:59:00,40.8,37.6,29.91,NE,45,0.7,5.4,88,0.00,,,0.00,WUHU216EASYWX,2013-03-18 12:59:00,
2013-03-18 08:02:00,40.8,37.6,29.91,NE,45,0.7,5.4,88,0.00,,,0.00,WUHU216EASYWX,2013-03-18 13:02:00,
2013-03-18 08:03:00,40.8,37.6,29.90,NW,315,2.2,5.4,88,0.00,,,0.00,WUHU216EASYWX,2013-03-18 13:03:00,
2013-03-18 08:04:00,40.8,37.6,29.90,NW,315,2.2,5.4,88,0.00,,,0.00,WUHU216EASYWX,2013-03-18 13:04:00,
2013-03-18 08:07:00,40.8,37.6,29.90,NW,315,2.2,5.4,88,0.00,,,0.00,WUHU216EASYWX,2013-03-18 13:07:00,
2013-03-18 08:08:00,40.8,37.6,29.90,NW,315,1.6,5.4,88,0.00,,,0.00,WUHU216EASYWX,2013-03-18 13:08:00,
2013-03-18 08:09:00,40.8,37.6,29.90,NW,315,1.6,5.4,88,0.00,,,0.00,WUHU216EASYWX,2013-03-18 13:09:00,
2013-03-18 08:12:00,40.8,37.6,29.90,NW,315,1.6,5.4,88,0.00,,,0.00,WUHU216EASYWX,2013-03-18 13:12:00,
2013-03-18 08:13:00,40.8,37.2,29.90,NW,315,2.2,5.4,87,0.00,,,0.00,WUHU216EASYWX,2013-03-18 13:13:00,
2013-03-18 08:14:00,40.8,37.2,29.90,NW,315,2.2,5.4,87,0.00,,,0.00,WUHU216EASYWX,2013-03-18 13:14:00,
2013-03-18 08:15:00,40.8,37.2,29.90,NW,315,2.2,5.4,87,0.00,,,0.00,WUHU216EASYWX,2013-03-18 13:15:00,
2013-03-18 08:18:00,40.8,37.6,29.90,North,0,1.6,5.4,88,0.00,,,0.00,WUHU216EASYWX,2013-03-18 13:18:00,
2013-03-18 08:19:00,40.8,37.6,29.90,North,0,1.6,5.4,88,0.00,,,0.00,WUHU216EASYWX,2013-03-18 13:19:00,
2013-03-18 08:20:00,40.8,37.6,29.90,North,0,1.6,5.4,88,0.00,,,0.00,WUHU216EASYWX,2013-03-18 13:20:00,
2013-03-18 08:23:00,41.2,37.6,29.90,NW,315,3.8,6.9,87,0.00,,,0.00,WUHU216EASYWX,2013-03-18 13:23:00,
2013-03-18 08:24:00,41.2,37.6,29.90,NW,315,3.8,6.9,87,0.00,,,0.00,WUHU216EASYWX,2013-03-18 13:24:00,
2013-03-18 08:25:00,41.2,37.6,29.90,NW,315,3.8,6.9,87,0.00,,,0.00,WUHU216EASYWX,2013-03-18 13:25:00,
2013-03-18 08:28:00,41.2,37.4,29.91,East,90,3.1,6.9,86,0.00,,,0.00,WUHU216EASYWX,2013-03-18 13:28:00,
2013-03-18 08:29:00,41.2,37.4,29.91,East,90,3.1,6.9,86,0.00,,,0.00,WUHU216EASYWX,2013-03-18 13:29:00,
2013-03-18 08:30:00,41.2,37.4,29.91,East,90,3.1,6.9,86,0.00,,,0.00,WUHU216EASYWX,2013-03-18 13:30:00,
2013-03-18 08:33:00,41.5,37.8,29.91,NE,45,1.6,6.0,86,0.00,,,0.00,WUHU216EASYWX,2013-03-18 13:33:00,
2013-03-18 08:34:00,41.5,37.8,29.91,NE,45,1.6,6.0,86,0.00,,,0.00,WUHU216EASYWX,2013-03-18 13:34:00,
2013-03-18 08:35:00,41.5,37.8,29.91,NE,45,1.6,6.0,86,0.00,,,0.00,WUHU216EASYWX,2013-03-18 13:35:00,
2013-03-18 08:38:00,42.3,37.8,29.91,NW,315,4.5,9.2,84,0.00,,,0.00,WUHU216EASYWX,2013-03-18 13:38:00,
2013-03-18 08:40:00,42.3,37.8,29.91,NW,315,4.5,9.2,84,0.00,,,0.00,WUHU216EASYWX,2013-03-18 13:40:00,
2013-03-18 08:44:00,42.8,37.9,29.92,West,270,4.5,9.2,83,0.00,,,0.00,WUHU216EASYWX,2013-03-18 13:44:00,
2013-03-18 08:45:00,42.8,37.9,29.92,West,270,4.5,9.2,83,0.00,,,0.00,WUHU216EASYWX,2013-03-18 13:45:00,
2013-03-18 08:49:00,43.3,38.3,29.91,North,0,5.4,9.2,82,0.00,,,0.00,WUHU216EASYWX,2013-03-18 13:49:00,
2013-03-18 08:50:00,43.3,38.3,29.91,North,0,5.4,9.2,82,0.00,,,0.00,WUHU216EASYWX,2013-03-18 13:50:00,
2013-03-18 08:51:00,43.3,38.3,29.91,North,0,5.4,9.2,82,0.00,,,0.00,WUHU216EASYWX,2013-03-18 13:51:00,
2013-03-18 08:54:00,43.9,38.8,29.92,North,0,1.6,9.2,82,0.00,,,0.00,WUHU216EASYWX,2013-03-18 13:54:00,
2013-03-18 08:55:00,43.9,38.8,29.92,North,0,1.6,9.2,82,0.00,,,0.00,WUHU216EASYWX,2013-03-18 13:55:00,
2013-03-18 08:56:00,43.9,38.8,29.92,North,0,1.6,9.2,82,0.00,,,0.00,WUHU216EASYWX,2013-03-18 13:56:00,
2013-03-18 08:59:00,44.8,39.0,29.92,NW,315,1.6,3.8,80,0.00,,,0.00,WUHU216EASYWX,2013-03-18 13:59:00,
2013-03-18 09:00:00,44.8,39.0,29.92,NW,315,1.6,3.8,80,0.00,,,0.00,WUHU216EASYWX,2013-03-18 14:00:00,
2013-03-18 09:02:00,44.8,39.0,29.92,NW,315,1.6,3.8,80,0.00,,,0.00,WUHU216EASYWX,2013-03-18 14:02:00,
2013-03-18 09:04:00,45.0,38.8,29.92,North,0,4.5,7.6,79,0.00,,,0.00,WUHU216EASYWX,2013-03-18 14:04:00,
2013-03-18 09:05:00,45.0,38.8,29.92,North,0,4.5,7.6,79,0.00,,,0.00,WUHU216EASYWX,2013-03-18 14:05:00,
2013-03-18 09:07:00,45.0,38.8,29.92,North,0,4.5,7.6,79,0.00,,,0.00,WUHU216EASYWX,2013-03-18 14:07:00,
2013-03-18 09:09:00,45.0,38.1,29.93,NW,315,6.0,10.8,77,0.00,,,0.00,WUHU216EASYWX,2013-03-18 14:09:00,
2013-03-18 09:10:00,45.0,38.1,29.93,NW,315,6.0,10.8,77,0.00,,,0.00,WUHU216EASYWX,2013-03-18 14:10:00,
2013-03-18 09:12:00,45.0,38.1,29.93,NW,315,6.0,10.8,77,0.00,,,0.00,WUHU216EASYWX,2013-03-18 14:12:00,
2013-03-18 09:14:00,45.3,38.3,29.93,West,270,6.0,18.4,76,0.00,,,0.00,WUHU216EASYWX,2013-03-18 14:14:00,
2013-03-18 09:15:00,45.3,38.3,29.93,West,270,6.0,18.4,76,0.00,,,0.00,WUHU216EASYWX,2013-03-18 14:15:00,
2013-03-18 09:17:00,45.3,38.3,29.93,West,270,6.0,18.4,76,0.00,,,0.00,WUHU216EASYWX,2013-03-18 14:17:00,
2013-03-18 09:19:00,44.2,37.6,29.93,SW,225,5.4,18.4,77,0.00,,,0.00,WUHU216EASYWX,2013-03-18 14:19:00,
2013-03-18 09:20:00,44.2,37.6,29.93,SW,225,5.4,18.4,77,0.00,,,0.00,WUHU216EASYWX,2013-03-18 14:20:00,
2013-03-18 09:21:00,44.2,37.6,29.93,SW,225,5.4,18.4,77,0.00,,,0.00,WUHU216EASYWX,2013-03-18 14:21:00,
2013-03-18 09:23:00,44.2,37.6,29.93,SW,225,5.4,18.4,77,0.00,,,0.00,WUHU216EASYWX,2013-03-18 14:23:00,
2013-03-18 09:24:00,44.1,37.6,29.94,NE,45,3.1,9.2,78,0.00,,,0.00,WUHU216EASYWX,2013-03-18 14:24:00,
2013-03-18 09:25:00,44.1,37.6,29.94,NE,45,3.1,9.2,78,0.00,,,0.00,WUHU216EASYWX,2013-03-18 14:25:00,
2013-03-18 09:26:00,44.1,37.6,29.94,NE,45,3.1,9.2,78,0.00,,,0.00,WUHU216EASYWX,2013-03-18 14:26:00,
2013-03-18 09:28:00,44.1,37.6,29.94,NE,45,3.1,5.4,78,0.00,,,0.00,WUHU216EASYWX,2013-03-18 14:28:00,
2013-03-18 09:29:00,43.5,37.2,29.93,NW,315,3.8,9.2,78,0.00,,,0.00,WUHU216EASYWX,2013-03-18 14:29:00,
2013-03-18 09:31:00,43.5,37.2,29.93,NW,315,3.8,9.2,78,0.00,,,0.00,WUHU216EASYWX,2013-03-18 14:31:00,
2013-03-18 09:33:00,43.2,37.0,29.93,NE,45,3.1,9.2,79,0.00,,,0.00,WUHU216EASYWX,2013-03-18 14:33:00,
2013-03-18 09:35:00,43.2,37.0,29.93,NE,45,3.1,9.2,79,0.00,,,0.00,WUHU216EASYWX,2013-03-18 14:35:00,
2013-03-18 09:36:00,43.2,37.0,29.93,NE,45,3.1,9.2,79,0.00,,,0.00,WUHU216EASYWX,2013-03-18 14:36:00,
2013-03-18 09:38:00,43.2,37.0,29.93,SE,135,0.7,6.0,79,0.00,,,0.00,WUHU216EASYWX,2013-03-18 14:38:00,
2013-03-18 09:40:00,43.2,37.0,29.93,SE,135,0.7,6.0,79,0.00,,,0.00,WUHU216EASYWX,2013-03-18 14:40:00,
2013-03-18 09:41:00,43.2,37.0,29.93,SE,135,0.7,6.0,79,0.00,,,0.00,WUHU216EASYWX,2013-03-18 14:41:00,
2013-03-18 09:43:00,43.2,37.0,29.93,NE,45,3.8,8.3,79,0.00,,,0.00,WUHU216EASYWX,2013-03-18 14:43:00,
2013-03-18 09:45:00,43.2,37.0,29.93,NE,45,3.8,8.3,79,0.00,,,0.00,WUHU216EASYWX,2013-03-18 14:45:00,
2013-03-18 09:47:00,43.2,37.0,29.93,NE,45,3.8,8.3,79,0.00,,,0.00,WUHU216EASYWX,2013-03-18 14:47:00,
2013-03-18 09:48:00,43.2,37.0,29.93,NW,315,3.8,8.3,79,0.00,,,0.00,WUHU216EASYWX,2013-03-18 14:48:00,
2013-03-18 09:50:00,43.2,37.0,29.93,NW,315,3.8,8.3,79,0.00,,,0.00,WUHU216EASYWX,2013-03-18 14:50:00,
2013-03-18 09:52:00,43.2,37.0,29.93,NW,315,3.8,8.3,79,0.00,,,0.00,WUHU216EASYWX,2013-03-18 14:52:00,
2013-03-18 09:53:00,43.2,37.0,29.94,North,0,3.8,6.9,79,0.00,,,0.00,WUHU216EASYWX,2013-03-18 14:53:00,
2013-03-18 09:55:00,43.2,37.0,29.94,North,0,3.8,6.9,79,0.00,,,0.00,WUHU216EASYWX,2013-03-18 14:55:00,
2013-03-18 09:57:00,43.2,37.0,29.94,North,0,3.8,6.9,79,0.00,,,0.00,WUHU216EASYWX,2013-03-18 14:57:00,
2013-03-18 09:58:00,43.0,37.2,29.94,SE,135,0.7,6.9,80,0.00,,,0.00,WUHU216EASYWX,2013-03-18 14:58:00,
2013-03-18 10:00:00,43.0,37.2,29.94,SE,135,0.7,6.9,80,0.00,,,0.00,WUHU216EASYWX,2013-03-18 15:00:00,
2013-03-18 10:02:00,43.0,37.2,29.94,SE,135,0.7,6.9,80,0.00,,,0.00,WUHU216EASYWX,2013-03-18 15:02:00,
2013-03-18 10:04:00,43.0,37.2,29.95,SE,135,3.1,6.0,80,0.00,,,0.00,WUHU216EASYWX,2013-03-18 15:04:00,
2013-03-18 10:05:00,43.0,37.2,29.95,SE,135,3.1,6.0,80,0.00,,,0.00,WUHU216EASYWX,2013-03-18 15:05:00,
2013-03-18 10:07:00,43.0,37.2,29.95,SE,135,3.1,6.0,80,0.00,,,0.00,WUHU216EASYWX,2013-03-18 15:07:00,
2013-03-18 10:08:00,43.0,37.2,29.95,SE,135,3.1,6.0,80,0.00,,,0.00,WUHU216EASYWX,2013-03-18 15:08:00,
2013-03-18 10:09:00,43.2,37.0,29.95,North,0,3.8,6.9,79,0.00,,,0.00,WUHU216EASYWX,2013-03-18 15:09:00,
2013-03-18 10:10:00,43.2,37.0,29.95,North,0,3.8,6.9,79,0.00,,,0.00,WUHU216EASYWX,2013-03-18 15:10:00,
2013-03-18 10:12:00,43.2,37.0,29.95,North,0,3.8,6.9,79,0.00,,,0.00,WUHU216EASYWX,2013-03-18 15:12:00,
2013-03-18 10:13:00,43.3,37.2,29.95,North,0,3.8,6.9,79,0.00,,,0.00,WUHU216EASYWX,2013-03-18 15:13:00,
2013-03-18 10:14:00,43.3,37.2,29.95,North,0,3.8,6.9,79,0.00,,,0.00,WUHU216EASYWX,2013-03-18 15:14:00,
2013-03-18 10:15:00,43.3,37.2,29.95,North,0,3.8,6.9,79,0.00,,,0.00,WUHU216EASYWX,2013-03-18 15:15:00,
2013-03-18 10:17:00,43.3,37.2,29.95,North,0,3.8,6.9,79,0.00,,,0.00,WUHU216EASYWX,2013-03-18 15:17:00,
2013-03-18 10:18:00,43.2,37.0,29.96,NNW,338,6.9,12.1,79,0.00,,,0.00,WUHU216EASYWX,2013-03-18 15:18:00,
2013-03-18 10:19:00,43.2,37.0,29.96,NNW,338,6.9,12.1,79,0.00,,,0.00,WUHU216EASYWX,2013-03-18 15:19:00,
2013-03-18 10:21:00,43.2,37.0,29.96,NNW,338,6.9,12.1,79,0.00,,,0.00,WUHU216EASYWX,2013-03-18 15:21:00,
2013-03-18 10:23:00,43.5,37.4,29.96,North,0,6.9,12.1,79,0.00,,,0.00,WUHU216EASYWX,2013-03-18 15:23:00,
2013-03-18 10:24:00,43.5,37.4,29.96,North,0,6.9,12.1,79,0.00,,,0.00,WUHU216EASYWX,2013-03-18 15:24:00,
2013-03-18 10:26:00,43.5,37.4,29.96,North,0,6.9,12.1,79,0.00,,,0.00,WUHU216EASYWX,2013-03-18 15:26:00,
2013-03-18 10:28:00,43.7,37.2,29.96,NW,315,2.2,11.4,78,0.00,,,0.00,WUHU216EASYWX,2013-03-18 15:28:00,
2013-03-18 10:29:00,43.7,37.2,29.96,NW,315,2.2,11.4,78,0.00,,,0.00,WUHU216EASYWX,2013-03-18 15:29:00,
2013-03-18 10:31:00,43.7,37.2,29.96,NW,315,2.2,11.4,78,0.00,,,0.00,WUHU216EASYWX,2013-03-18 15:31:00,
2013-03-18 10:33:00,43.9,37.4,29.96,WNW,293,5.4,10.8,78,0.00,,,0.00,WUHU216EASYWX,2013-03-18 15:33:00,
2013-03-18 10:34:00,43.9,37.4,29.96,WNW,293,5.4,10.8,78,0.00,,,0.00,WUHU216EASYWX,2013-03-18 15:34:00,
2013-03-18 10:36:00,43.9,37.4,29.96,WNW,293,5.4,10.8,78,0.00,,,0.00,WUHU216EASYWX,2013-03-18 15:36:00,
2013-03-18 10:38:00,44.2,37.6,29.96,NE,45,2.2,10.8,77,0.00,,,0.00,WUHU216EASYWX,2013-03-18 15:38:00,
2013-03-18 10:39:00,44.2,37.6,29.96,NE,45,2.2,10.8,77,0.00,,,0.00,WUHU216EASYWX,2013-03-18 15:39:00,
2013-03-18 10:41:00,44.2,37.6,29.96,NE,45,2.2,10.8,77,0.00,,,0.00,WUHU216EASYWX,2013-03-18 15:41:00,
2013-03-18 10:43:00,44.2,37.6,29.96,NW,315,3.8,9.2,77,0.00,,,0.00,WUHU216EASYWX,2013-03-18 15:43:00,
2013-03-18 10:44:00,44.2,37.6,29.96,NW,315,3.8,9.2,77,0.00,,,0.00,WUHU216EASYWX,2013-03-18 15:44:00,
2013-03-18 10:47:00,44.2,37.6,29.96,NW,315,3.8,9.2,77,0.00,,,0.00,WUHU216EASYWX,2013-03-18 15:47:00,
2013-03-18 10:48:00,44.4,37.4,29.97,NW,315,6.0,11.4,76,0.00,,,0.00,WUHU216EASYWX,2013-03-18 15:48:00,
2013-03-18 10:49:00,44.4,37.4,29.97,NW,315,6.0,11.4,76,0.00,,,0.00,WUHU216EASYWX,2013-03-18 15:49:00,
2013-03-18 10:52:00,44.4,37.4,29.97,NW,315,6.0,11.4,76,0.00,,,0.00,WUHU216EASYWX,2013-03-18 15:52:00,
2013-03-18 10:53:00,44.6,37.9,29.97,SW,225,3.1,11.4,77,0.00,,,0.00,WUHU216EASYWX,2013-03-18 15:53:00,
2013-03-18 10:54:00,44.6,37.9,29.97,SW,225,3.1,11.4,77,0.00,,,0.00,WUHU216EASYWX,2013-03-18 15:54:00,
2013-03-18 10:57:00,44.6,37.9,29.97,SW,225,3.1,11.4,77,0.00,,,0.00,WUHU216EASYWX,2013-03-18 15:57:00,
2013-03-18 10:58:00,44.6,37.9,29.97,SW,225,3.1,6.9,77,0.00,,,0.00,WUHU216EASYWX,2013-03-18 15:58:00,
2013-03-18 10:59:00,44.6,37.9,29.97,SW,225,3.1,6.9,77,0.00,,,0.00,WUHU216EASYWX,2013-03-18 15:59:00,
2013-03-18 11:02:00,44.6,37.9,29.97,SW,225,3.1,6.9,77,0.00,,,0.00,WUHU216EASYWX,2013-03-18 16:02:00,
2013-03-18 23:13:00,43.7,27.7,30.06,East,90,0.0,0.7,53,0.00,,FEW 10SM,0.00,WUHU216EASYWX,2013-03-19 04:13:00,
2013-03-18 23:18:00,43.5,27.5,30.06,East,90,0.0,0.7,53,0.00,,FEW 10SM,0.00,WUHU216EASYWX,2013-03-19 04:18:00,
2013-03-18 23:23:00,43.3,27.9,30.06,East,90,0.0,1.6,54,0.00,,FEW 10SM,0.00,WUHU216EASYWX,2013-03-19 04:23:00,
2013-03-18 23:28:00,43.3,27.9,30.06,East,90,0.0,1.6,54,0.00,,FEW 10SM,0.00,WUHU216EASYWX,2013-03-19 04:28:00,
2013-03-18 23:33:00,43.2,28.6,30.06,East,90,0.7,1.6,56,0.00,,FEW 10SM,0.00,WUHU216EASYWX,2013-03-19 04:33:00,
2013-03-18 23:38:00,43.0,27.9,30.06,East,90,0.0,1.6,55,0.00,,FEW 10SM,0.00,WUHU216EASYWX,2013-03-19 04:38:00,
2013-03-18 23:43:00,42.8,28.2,30.06,East,90,0.0,0.7,56,0.00,,FEW 10SM,0.00,WUHU216EASYWX,2013-03-19 04:43:00,
2013-03-18 23:48:00,42.6,28.0,30.06,East,90,0.0,0.7,56,0.00,,FEW 10SM,0.00,WUHU216EASYWX,2013-03-19 04:48:00,
2013-03-18 23:53:00,42.4,27.9,30.06,East,90,0.7,1.6,56,0.00,,FEW 10SM,0.00,WUHU216EASYWX,2013-03-19 04:53:00,
2013-03-18 23:58:00,42.3,27.3,30.06,East,90,0.0,1.6,55,0.00,,FEW 10SM,0.00,WUHU216EASYWX,2013-03-19 04:58:00,